Location: Observatory
(52.1446°N, 0.4624°W)
Time: 16:54:02
(UTC+00:00)

ISS - Pass Details

Date: 26 November 2021
Orbit: 417 x 422 km, 51.6° (Epoch: 06 December)

Event Time Altitude Azimuth Distance (km) Brightness Sun altitude
Rises 16:47:29 0° 233° (SW) 2,370 2.1 -7.5°
Reaches altitude 10° 16:49:39 10° 226° (SW) 1,508 0.4 -7.8°
Maximum altitude 16:52:51 39° 156° (SSE) 645 -2.8 -8.3°
Enters shadow 16:55:55 11° 86° (E) 1,463 -1.6 -8.7°
